Kirksville, MO

1:42 PM CST on February 21, 2017 (GMT -0600)
Kirksville Regional

Weather History for KIRK - March, 2014

Change the Weather History Date:

Monday, March 17, 2014

  Actual Average Record
Temperature  
Mean Temperature 28 °F 41 °F  
Max Temperature 44 °F 52 °F 78 °F (2012)
Min Temperature 12 °F 31 °F 10 °F (1941)
Degree Days  
Heating Degree Days 37 24  
Month to date heating degree days 565 462  
Since 1 July heating degree days 5535 4995  
Cooling Degree Days 0 0  
Month to date cooling degree days 0 0  
Year to date cooling degree days 0 0  
Moisture  
Dew Point 17 °F    
Average Humidity 66    
Maximum Humidity 92    
Minimum Humidity 39    
Precipitation  
Precipitation 0.00 in 0.09 in 1.17 in (1965)
Month to date precipitation 0.77 1.43  
Year to date precipitation 4.32 4.23  
Sea Level Pressure  
Sea Level Pressure 29.90 in    
Wind  
Wind Speed 8 mph (SSE)    
Max Wind Speed 18 mph    
Max Gust Speed 22 mph    
Visibility 10 miles    
Events      
T = Trace of Precipitation, MM = Missing Value Source: NWS Daily Summary

Daily Weather History Graph

Daily Weather History Graph

Search for Another Location

Airport or City:

Trip Planner

Search our weather history database for the weather conditions in past years. The results will help you decide how hot, cold, wet, or windy it might be!

Date:

Astronomy

Mar. 17, 2014 Rise Set
Actual Time 7:18 AM CDT 7:19 PM CDT
Civil Twilight 6:51 AM CDT 7:46 PM CDT
Nautical Twilight 6:19 AM CDT 8:17 PM CDT
Astronomical Twilight 5:47 AM CDT 8:49 PM CDT
Moon 8:36 PM CDT (3/17) 7:34 AM CDT (3/17)
Length of Visible Light 12h 54m
Length of Day
12h 00m
Full, 99% of the Moon is Illuminated
Mar 17
Full
Mar 23
Last Quarter
Mar 30
New
Apr 7
First Quarter
Apr 15
Full

Hourly Weather History & Observations

Time (CDT) Temp. Windchill Dew Point Humidity Pressure Visibility Wind Dir Wind Speed Gust Speed Precip Events Conditions
12:55 AM 17.1 °F 10.0 °F 12.0 °F 81% 30.14 in 10.0 mi NNE 4.6 mph - N/A   Clear
1:55 AM 17.1 °F 11.7 °F 10.9 °F 77% 30.12 in 10.0 mi NE 3.5 mph - N/A   Clear
2:55 AM 17.1 °F 10.0 °F 10.0 °F 74% 30.08 in 10.0 mi ESE 4.6 mph - N/A   Clear
3:55 AM 12.9 °F - 10.0 °F 88% 30.08 in 10.0 mi Calm Calm - N/A   Clear
4:55 AM 12.9 °F - 9.0 °F 84% 30.04 in 10.0 mi Calm Calm - N/A   Clear
5:55 AM 12.9 °F - 9.0 °F 84% 30.04 in 10.0 mi Calm Calm - N/A   Clear
6:55 AM 12.9 °F - 9.0 °F 84% 30.02 in 10.0 mi Calm Calm - N/A   Clear
7:55 AM 18.0 °F 9.8 °F 12.9 °F 81% 30.01 in 10.0 mi ESE 5.8 mph - N/A   Clear
8:55 AM 21.0 °F 11.4 °F 16.0 °F 81% 29.99 in 10.0 mi South 8.1 mph - N/A   Clear
9:55 AM 25.0 °F 14.2 °F 16.0 °F 69% 29.97 in 10.0 mi South 11.5 mph - N/A   Clear
10:55 AM 28.0 °F 18.1 °F 18.0 °F 66% 29.96 in 10.0 mi South 11.5 mph - N/A   Clear
11:55 AM 32.0 °F 24.8 °F 19.0 °F 59% 29.93 in 10.0 mi South 8.1 mph - N/A   Clear
12:55 PM 36.0 °F 28.0 °F 21.0 °F 55% 29.90 in 10.0 mi South 11.5 mph - N/A   Partly Cloudy
1:55 PM 39.0 °F 31.8 °F 23.0 °F 53% 29.83 in 10.0 mi SSE 11.5 mph - N/A   Clear
2:55 PM 42.1 °F 34.9 °F 19.0 °F 40% 29.79 in 10.0 mi SSE 13.8 mph - N/A   Clear
3:55 PM 43.0 °F 35.7 °F 19.9 °F 40% 29.77 in 10.0 mi SSE 15.0 mph - N/A   Clear
4:55 PM 43.0 °F 36.0 °F 19.9 °F 40% 29.73 in 10.0 mi SSE 13.8 mph - N/A   Clear
5:55 PM 44.1 °F 37.7 °F 21.0 °F 40% 29.73 in 10.0 mi SSE 12.7 mph - N/A   Clear
6:55 PM 39.9 °F 33.9 °F 24.1 °F 53% 29.73 in 10.0 mi SSE 9.2 mph - N/A   Clear
7:55 PM 35.1 °F 27.9 °F 24.1 °F 64% 29.73 in 10.0 mi SSE 9.2 mph - N/A   Clear
8:55 PM 36.0 °F 28.0 °F 24.1 °F 62% 29.73 in 10.0 mi SSE 11.5 mph - N/A   Clear
9:55 PM 34.0 °F 25.5 °F 23.0 °F 64% 29.73 in 10.0 mi SSE 11.5 mph - N/A   Clear
10:55 PM 35.1 °F 27.4 °F 21.9 °F 59% 29.72 in 10.0 mi SSE 10.4 mph - N/A   Clear
11:55 PM 33.1 °F 25.5 °F 23.0 °F 66% 29.72 in 10.0 mi SSE 9.2 mph - N/A   Clear